TimeEDT,TemperatureF,Dew PointF,Humidity,Sea Level PressureIn,VisibilityMPH,Wind Direction,Wind SpeedMPH,Gust SpeedMPH,PrecipitationIn,Events,Conditions,WindDirDegrees,DateUTC
12:54 AM,50.0,42.1,74,30.10,10.0,West,3.5,-,N/A,,Partly Cloudy,260,2012-10-11 04:54:00
1:54 AM,48.9,41.0,74,30.12,10.0,WSW,3.5,-,N/A,,Partly Cloudy,250,2012-10-11 05:54:00
2:54 AM,48.0,39.9,74,30.13,10.0,West,9.2,-,N/A,,Partly Cloudy,280,2012-10-11 06:54:00
3:54 AM,48.9,39.0,69,30.14,10.0,WNW,11.5,-,N/A,,Clear,290,2012-10-11 07:54:00
4:54 AM,48.0,36.0,63,30.17,10.0,WNW,6.9,-,N/A,,Clear,290,2012-10-11 08:54:00
5:54 AM,46.0,33.1,61,30.21,10.0,SW,3.5,-,N/A,,Clear,230,2012-10-11 09:54:00
6:54 AM,45.0,34.0,65,30.23,10.0,WNW,5.8,-,N/A,,Clear,290,2012-10-11 10:54:00
7:54 AM,46.0,34.0,63,30.26,10.0,WNW,5.8,-,N/A,,Clear,290,2012-10-11 11:54:00
8:54 AM,48.9,33.1,54,30.28,10.0,West,8.1,-,N/A,,Clear,280,2012-10-11 12:54:00
9:54 AM,51.1,32.0,48,30.29,10.0,NW,11.5,-,N/A,,Clear,310,2012-10-11 13:54:00
10:54 AM,54.0,30.0,40,30.28,10.0,NNW,8.1,-,N/A,,Clear,330,2012-10-11 14:54:00
11:54 AM,55.9,28.9,36,30.27,10.0,Variable,6.9,-,N/A,,Clear,0,2012-10-11 15:54:00
12:54 PM,57.9,30.9,36,30.26,10.0,NW,4.6,-,N/A,,Clear,320,2012-10-11 16:54:00
1:54 PM,59.0,30.0,33,30.23,10.0,NW,6.9,-,N/A,,Clear,310,2012-10-11 17:54:00
2:54 PM,60.1,30.9,33,30.22,10.0,WSW,6.9,-,N/A,,Clear,240,2012-10-11 18:54:00
3:54 PM,61.0,32.0,34,30.20,10.0,WSW,6.9,-,N/A,,Clear,240,2012-10-11 19:54:00
4:54 PM,61.0,30.9,32,30.20,10.0,Variable,6.9,-,N/A,,Clear,0,2012-10-11 20:54:00
5:54 PM,59.0,33.8,39,30.20,10.0,SSW,5.8,-,N/A,,Clear,200,2012-10-11 21:54:00
6:54 PM,55.0,36.0,49,30.20,10.0,South,3.5,-,N/A,,Partly Cloudy,170,2012-10-11 22:54:00
7:54 PM,51.1,39.0,63,30.20,10.0,SSW,3.5,-,N/A,,Clear,200,2012-10-11 23:54:00
8:54 PM,48.9,39.9,71,30.20,10.0,Calm,Calm,-,N/A,,Clear,0,2012-10-12 00:54:00
9:54 PM,46.9,39.9,77,30.21,10.0,Calm,Calm,-,N/A,,Partly Cloudy,0,2012-10-12 01:54:00
10:54 PM,45.0,41.0,86,30.20,10.0,Calm,Calm,-,N/A,,Partly Cloudy,0,2012-10-12 02:54:00
11:54 PM,44.1,39.9,85,30.18,10.0,Calm,Calm,-,N/A,,Clear,0,2012-10-12 03:54:00